When you browse on this site, cookies collect data to enhance your experience and personalize the content and advertising you see.
Visit our Privacy Policy to learn more. By continuing to use the site, you agree to this use of cookies and data.
  • In Switzerland
  • List of Countries
  • For 7 days
  • Water Temperature
  • Satellite Maps
  • Weather Map
  • Weather Widgets
  • user-avatar
    Login

    Hourly Weather Canberra

    Today, 14 December, Friday

    Time Temperature Precipitation Wind Pressure Humidity
    00:00 +16°C° 0.2 mm 1 mps 699 mmHg 96%
    01:00 +15°C° 0.2 mm 0 mps 699 mmHg 96%
    02:00 +16°C° 0.1 mm 1 mps 698 mmHg 97%
    03:00 +16°C° 0.1 mm 1 mps 698 mmHg 97%
    04:00 +15°C° 0 mm 1 mps 699 mmHg 96%
    05:00 +16°C° 0 mm 1 mps 699 mmHg 93%
    06:00 +18°C° 0 mm 1 mps 700 mmHg 91%
    07:00 +19°C° 0 mm 1 mps 700 mmHg 88%
    08:00 +21°C° 0.2 mm 1 mps 700 mmHg 79%
    09:00 +23°C° 0.2 mm 2 mps 701 mmHg 70%
    10:00 +21°C° 0 mm 2 mps 701 mmHg 79%
    11:00 +23°C° 1 mm 2 mps 701 mmHg 77%
    12:00 +22°C° 1 mm 3 mps 701 mmHg 75%
    13:00 +24°C° 1 mm 3 mps 701 mmHg 73%
    14:00 +24°C° 1.4 mm 3 mps 701 mmHg 74%
    15:00 +24°C° 1.4 mm 3 mps 701 mmHg 76%
    16:00 +22°C° 1.4 mm 3 mps 701 mmHg 77%
    17:00 +21°C° 2.5 mm 3 mps 701 mmHg 80%
    18:00 +20°C° 2.5 mm 2 mps 701 mmHg 84%
    19:00 +19°C° 2.5 mm 2 mps 701 mmHg 88%
    20:00 +18°C° 0.8 mm 2 mps 701 mmHg 90%
    21:00 +19°C° 0.8 mm 1 mps 701 mmHg 92%
    22:00 +18°C° 0.8 mm 1 mps 701 mmHg 95%
    23:00 +18°C° 0 mm 1 mps 701 mmHg 95%

    Tomorrow, 15 December, Saturday

    Time Temperature Precipitation Wind Pressure Humidity
    00:00 +16°C° 0 mm 1 mps 701 mmHg 95%
    01:00 +16°C° 0 mm 1 mps 701 mmHg 95%
    02:00 +16°C° 0 mm 1 mps 701 mmHg 95%
    03:00 +16°C° 0 mm 1 mps 701 mmHg 95%
    04:00 +15°C° 0 mm 1 mps 701 mmHg 94%
    05:00 +18°C° 0 mm 1 mps 701 mmHg 91%
    06:00 +19°C° 0 mm 1 mps 702 mmHg 88%
    07:00 +19°C° 0 mm 2 mps 702 mmHg 85%
    08:00 +21°C° 0.6 mm 3 mps 702 mmHg 79%
    09:00 +22°C° 0.6 mm 4 mps 703 mmHg 74%
    10:00 +25°C° 0.6 mm 4 mps 703 mmHg 68%
    11:00 +25°C° 1.1 mm 4 mps 702 mmHg 68%
    12:00 +25°C° 1.1 mm 3 mps 702 mmHg 68%
    13:00 +25°C° 1.1 mm 3 mps 702 mmHg 69%
    14:00 +25°C° 0.6 mm 3 mps 702 mmHg 65%
    15:00 +25°C° 0.6 mm 3 mps 701 mmHg 62%
    16:00 +25°C° 0.6 mm 2 mps 701 mmHg 58%
    17:00 +24°C° 0.6 mm 2 mps 701 mmHg 64%
    18:00 +21°C° 0.6 mm 2 mps 701 mmHg 70%
    19:00 +20°C° 0.6 mm 2 mps 701 mmHg 77%
    20:00 +19°C° 0.1 mm 2 mps 702 mmHg 80%
    21:00 +19°C° 0.1 mm 1 mps 702 mmHg 84%
    22:00 +18°C° 0.1 mm 1 mps 702 mmHg 88%
    23:00 +18°C° 0 mm 1 mps 702 mmHg 88%

    Day after tomorrow, 16 December, Sunday

    Time Temperature Precipitation Wind Pressure Humidity
    00:00 +16°C° 0 mm 1 mps 702 mmHg 87%
    01:00 +16°C° 0 mm 1 mps 702 mmHg 87%
    02:00 +16°C° 0 mm 1 mps 702 mmHg 86%
    03:00 +14°C° 0 mm 0 mps 702 mmHg 85%
    04:00 +14°C° 0 mm 0 mps 702 mmHg 84%
    05:00 +16°C° 0 mm 1 mps 702 mmHg 77%
    06:00 +19°C° 0 mm 1 mps 703 mmHg 70%
    07:00 +19°C° 0 mm 2 mps 704 mmHg 64%
    08:00 +21°C° 0 mm 2 mps 704 mmHg 56%
    09:00 +22°C° 0 mm 3 mps 704 mmHg 49%
    10:00 +23°C° 0 mm 4 mps 704 mmHg 42%
    11:00 +25°C° 0 mm 4 mps 704 mmHg 41%
    12:00 +26°C° 0 mm 4 mps 704 mmHg 39%
    13:00 +26°C° 0 mm 5 mps 703 mmHg 37%
    14:00 +27°C° 0 mm 5 mps 703 mmHg 36%
    15:00 +28°C° 0 mm 5 mps 703 mmHg 35%
    16:00 +28°C° 0 mm 5 mps 703 mmHg 34%
    17:00 +26°C° 0 mm 4 mps 703 mmHg 40%
    18:00 +25°C° 0 mm 3 mps 703 mmHg 46%
    19:00 +23°C° 0 mm 2 mps 703 mmHg 52%
    20:00 +22°C° 0 mm 1 mps 703 mmHg 54%
    21:00 +20°C° 0 mm 1 mps 704 mmHg 57%
    22:00 +19°C° 0 mm 1 mps 704 mmHg 59%
    23:00 +18°C° 0 mm 1 mps 704 mmHg 62%

    17 December, Monday

    Time Temperature Precipitation Wind Pressure Humidity
    00:00 +18°C° 0 mm 1 mps 704 mmHg 65%
    01:00 +15°C° 0 mm 0 mps 704 mmHg 67%
    02:00 +16°C° 0 mm 1 mps 704 mmHg 69%
    03:00 +16°C° 0 mm 1 mps 704 mmHg 71%
    04:00 +15°C° 0 mm 1 mps 704 mmHg 72%
    05:00 +18°C° 0 mm 1 mps 704 mmHg 67%
    06:00 +20°C° 0 mm 1 mps 705 mmHg 61%
    07:00 +21°C° 0 mm 2 mps 705 mmHg 55%
    08:00 +24°C° 0 mm 2 mps 706 mmHg 48%
    09:00 +26°C° 0 mm 3 mps 706 mmHg 41%
    10:00 +28°C° 0 mm 3 mps 706 mmHg 35%
    11:00 +29°C° 0 mm 3 mps 706 mmHg 33%
    12:00 +29°C° 0 mm 4 mps 706 mmHg 32%
    13:00 +30°C° 0 mm 4 mps 706 mmHg 30%
    14:00 +30°C° 0 mm 3 mps 706 mmHg 31%
    15:00 +30°C° 0 mm 3 mps 706 mmHg 32%
    16:00 +30°C° 0 mm 3 mps 706 mmHg 34%
    17:00 +28°C° 0 mm 2 mps 706 mmHg 42%
    18:00 +25°C° 0 mm 2 mps 707 mmHg 50%
    19:00 +23°C° 0 mm 1 mps 707 mmHg 59%
    20:00 +22°C° 0 mm 1 mps 707 mmHg 67%
    21:00 +19°C° 0 mm 2 mps 707 mmHg 74%
    22:00 +17°C° 0 mm 2 mps 708 mmHg 82%
    23:00 +17°C° 0 mm 2 mps 707 mmHg 83%

    18 December, Tuesday

    Time Temperature Precipitation Wind Pressure Humidity
    00:00 +16°C° 0 mm 2 mps 707 mmHg 84%
    01:00 +16°C° 0 mm 1 mps 707 mmHg 86%
    02:00 +16°C° 0 mm 1 mps 707 mmHg 85%
    03:00 +16°C° 0 mm 1 mps 707 mmHg 85%
    04:00 +16°C° 0 mm 1 mps 707 mmHg 84%
    05:00 +18°C° 0 mm 1 mps 708 mmHg 78%
    06:00 +20°C° 0 mm 1 mps 708 mmHg 71%
    07:00 +22°C° 0 mm 1 mps 709 mmHg 64%
    08:00 +25°C° 0 mm 1 mps 709 mmHg 57%
    09:00 +27°C° 0 mm 2 mps 709 mmHg 49%
    10:00 +29°C° 0 mm 2 mps 709 mmHg 42%
    11:00 +31°C° 0 mm 2 mps 709 mmHg 38%
    12:00 +32°C° 0 mm 2 mps 709 mmHg 34%
    13:00 +35°C° 0 mm 2 mps 709 mmHg 29%
    14:00 +35°C° 0 mm 2 mps 708 mmHg 30%
    15:00 +34°C° 0 mm 2 mps 708 mmHg 30%
    16:00 +34°C° 0 mm 2 mps 708 mmHg 30%
    17:00 +30°C° 0 mm 2 mps 708 mmHg 42%
    18:00 +27°C° 0 mm 3 mps 708 mmHg 54%
    19:00 +24°C° 0 mm 3 mps 708 mmHg 66%
    20:00 +22°C° 0 mm 3 mps 708 mmHg 73%
    21:00 +20°C° 0 mm 3 mps 708 mmHg 80%
    22:00 +18°C° 0 mm 2 mps 709 mmHg 86%
    23:00 +18°C° 0 mm 2 mps 708 mmHg 87%

    19 December, Wednesday

    Time Temperature Precipitation Wind Pressure Humidity
    00:00 +18°C° 0 mm 2 mps 708 mmHg 88%
    01:00 +18°C° 0 mm 2 mps 708 mmHg 89%
    02:00 +17°C° 0 mm 2 mps 707 mmHg 90%
    03:00 +18°C° 0 mm 1 mps 707 mmHg 91%
    04:00 +18°C° 0 mm 1 mps 707 mmHg 92%
    05:00 +20°C° 0 mm 1 mps 707 mmHg 87%
    06:00 +21°C° 0 mm 1 mps 707 mmHg 83%
    07:00 +22°C° 0 mm 1 mps 707 mmHg 79%
    08:00 +26°C° 0.1 mm 2 mps 707 mmHg 68%
    09:00 +29°C° 0.1 mm 3 mps 708 mmHg 57%
    10:00 +33°C° 0.1 mm 4 mps 708 mmHg 47%
    11:00 +34°C° 0 mm 4 mps 707 mmHg 42%
    12:00 +36°C° 0 mm 4 mps 706 mmHg 37%
    13:00 +37°C° 0 mm 5 mps 706 mmHg 32%
    14:00 +36°C° 0.4 mm 4 mps 705 mmHg 38%
    15:00 +34°C° 0.4 mm 4 mps 704 mmHg 43%
    16:00 +33°C° 0.4 mm 4 mps 704 mmHg 48%
    17:00 +29°C° 4.7 mm 3 mps 703 mmHg 60%
    18:00 +26°C° 4.7 mm 2 mps 703 mmHg 72%
    19:00 +24°C° 4.7 mm 2 mps 702 mmHg 84%
    20:00 +23°C° 0 mm 2 mps 702 mmHg 85%
    21:00 +23°C° 0 mm 2 mps 702 mmHg 86%
    22:00 +23°C° 0 mm 2 mps 702 mmHg 87%
    23:00 +23°C° 0 mm 2 mps 701 mmHg 86%
    Show more